Wind_Speed
51 62 68 74 79 81 81 82 78 78 81 86 89 75 72 76 74 78 72 68 68 69 70 67 62 63 62 58 56 55 53 55 52 51 47 44 39 38 39 35 37 37 38 35 35 36 29 25 21
44 47 50 66 75 83 85 91 91 83 84 84 91 88 77 76 77 82 79 76 71 68 68 70 73 74 72 65 65 62 61 58 57 55 50 45 43 47 46 48 48 45 38 33 35 34 31 28 24
43 39 43 45 51 59 71 85 80 76 80 85 90 92 89 86 87 84 88 85 80 77 73 71 72 70 72 76 73 69 66 62 60 56 60 51 51 49 48 46 51 50 38 32 33 33 29 30 27
19 28 24 24 30 36 41 55 54 60 60 71 82 94 95 90 91 89 86 91 87 85 85 84 82 77 74 73 75 73 70 70 64 65 64 58 54 49 52 49 48 43 36 34 33 33 33 33 30
34 40 41 39 37 40 37 38 37 53 52 57 68 85 89 91 95 98 90 91 92 90 87 92 90 84 82 78 78 76 74 75 70 69 66 64 61 56 55 53 52 45 45 37 37 36 34 35 35
48 53 55 44 46 49 40 48 47 43 59 44 47 60 77 83 93 97 92 87 86 95 91 96 92 92 93 88 84 83 80 77 75 75 73 66 66 62 60 60 55 51 47 43 40 38 39 40 38
55 56 54 53 54 56 46 46 56 44 45 73 47 54 54 66 66 73 90 87 92 83 88 95 99 96 93 94 86 82 78 80 80 79 77 71 68 67 60 60 56 56 50 47 45 43 41 42 42
58 63 66 65 61 61 58 54 59 62 43 63 60 64 61 54 50 41 54 71 74 77 84 92 100 92 92 89 88 85 80 78 75 72 72 69 64 63 63 58 56 57 52 48 46 46 45 44 44
64 66 62 68 69 62 64 59 56 58 49 47 70 57 67 63 56 53 58 39 42 52 70 77 82 86 85 84 83 86 79 75 75 69 72 69 63 62 60 57 58 57 55 50 49 49 49 47 48
63 66 70 64 65 67 69 67 61 49 47 46 69 64 68 76 66 59 64 37 29 51 56 59 67 77 82 83 82 78 79 78 73 71 70 67 65 64 62 58 59 59 56 53 52 52 52 52 50
68 69 66 71 70 75 67 65 56 48 41 53 67 75 75 80 80 63 58 57 54 50 45 54 62 70 73 75 80 77 77 77 75 67 69 66 65 63 62 60 60 60 60 56 55 54 53 53 52
56 68 68 69 79 78 64 62 57 40 30 46 59 72 74 81 78 81 66 57 56 49 52 59 58 60 64 67 72 76 73 75 74 72 66 62 61 61 62 59 57 58 60 55 53 54 53 53 53
64 69 71 77 71 64 62 49 46 41 32 44 47 60 75 80 81 82 67 72 72 36 54 49 49 57 59 63 63 69 71 72 73 69 69 68 64 57 52 56 56 57 57 55 53 54 53 52 53
57 72 75 71 72 68 54 47 47 43 34 27 37 46 63 68 77 78 68 80 78 75 57 47 38 52 55 58 61 64 70 66 63 68 68 66 64 62 60 56 54 55 53 53 54 53 55 53 53
65 64 67 77 76 66 52 43 37 38 33 25 28 30 50 63 68 72 89 94 89 71 50 53 43 40 41 46 48 57 62 66 68 61 63 65 65 63 63 62 62 59 53 54 55 54 56 55 56
63 59 75 69 68 53 45 39 33 31 30 23 27 28 35 48 65 78 94 97 89 82 61 55 47 51 52 54 52 49 44 48 62 69 64 62 63 67 66 67 64 63 61 61 59 59 58 56 56
50 60 71 78 61 49 46 39 36 30 26 24 25 29 37 42 51 63 91 94 95 85 81 72 64 51 43 42 51 45 47 47 46 50 60 66 66 62 60 60 62 65 66 67 65 65 65 64 59
49 62 70 73 56 48 45 37 32 31 28 25 25 29 36 45 54 58 83 93 94 84 84 80 68 62 58 59 49 44 39 41 38 41 48 56 61 60 64 62 62 63 67 66 63 63 61 59 61
50 58 61 62 59 48 43 38 32 29 26 24 23 28 35 45 53 67 82 98 87 84 81 83 73 69 65 66 55 40 45 37 43 43 41 48 57 64 59 58 60 60 57 61 62 62 62 63 63
49 51 62 53 55 42 39 39 36 31 27 21 19 22 31 42 53 68 81 100 94 83 78 70 74 77 67 65 58 48 43 42 38 35 43 54 53 54 60 60 63 59 59 60 59 61 65 67 68
50 52 55 49 47 45 42 42 38 37 30 22 15 17 23 33 46 65 75 92 105 91 85 70 74 70 64 63 65 55 50 48 45 46 41 51 49 47 50 59 60 57 58 60 61 61 62 67 69
47 51 50 50 48 46 45 46 41 42 38 26 17 10 18 27 38 53 72 78 100 99 92 87 77 74 71 68 68 60 52 48 48 51 55 61 60 60 47 51 52 60 60 60 62 64 66 66 62
45 50 59 61 64 55 52 49 48 44 42 35 24 10 13 26 35 46 61 75 80 95 110 92 83 77 78 71 69 66 58 57 57 56 51 58 63 60 59 53 48 48 52 54 58 63 68 68 66
48 52 57 66 73 64 55 50 48 47 46 41 29 18 7 19 28 40 52 70 74 84 90 97 86 86 83 77 74 68 67 67 63 63 67 65 59 60 55 50 50 48 51 50 54 58 60 62 64
46 51 57 63 73 75 65 54 47 47 46 44 37 23 11 13 22 33 47 59 72 77 82 96 94 88 88 77 78 78 75 69 70 72 72 70 69 65 58 56 56 53 50 52 50 53 52 54 54
43 54 58 63 72 77 74 65 56 51 48 45 39 31 17 6 18 27 37 49 65 74 82 89 93 89 90 88 84 81 79 77 75 76 73 69 60 56 56 51 56 57 57 57 50 49 51 53 56
42 48 55 63 70 74 77 72 63 55 50 48 43 34 25 13 7 23 32 42 52 71 79 93 95 92 89 88 91 85 84 82 78 76 72 69 65 66 66 58 59 56 61 63 62 60 63 70 72
42 48 51 61 69 75 78 79 70 60 54 50 48 42 32 20 9 13 28 39 45 62 74 87 98 100 93 90 90 94 88 88 83 79 76 74 73 73 72 70 66 70 68 70 69 68 70 69 68
43 47 54 57 64 70 76 84 80 67 58 52 49 44 39 27 17 7 18 32 43 52 67 83 90 100 101 97 93 90 93 93 93 89 87 83 85 85 81 79 76 74 68 67 68 71 68 66 69
43 47 49 55 57 67 73 75 85 75 64 57 51 46 40 35 19 15 10 21 35 46 57 69 89 92 101 101 99 96 95 97 98 96 98 93 91 89 90 89 92 90 88 79 75 76 76 78 79
Wind_Direction
252 247 249 247 248 246 245 247 256 254 255 252 248 249 248 247 247 254 252 255 255 255 256 258 260 262 265 266 267 267 270 274 280 284 287 287 282 294 297 293 301 308 308 316 323 323 320 315 312
254 255 254 253 254 257 253 255 257 250 252 255 250 249 248 250 251 250 251 253 254 254 258 259 260 264 265 263 267 270 270 273 275 278 282 279 282 287 288 293 297 300 298 305 311 315 310 312 307
263 270 269 254 258 256 258 260 262 264 254 251 250 252 250 248 253 251 248 255 257 258 257 259 259 264 269 263 265 270 268 269 274 278 283 280 276 279 285 288 294 301 293 293 300 306 300 302 300
301 292 294 271 276 263 254 252 250 252 248 251 254 247 251 254 253 252 253 254 256 259 260 261 262 265 267 266 268 269 271 267 271 276 278 278 279 277 282 285 287 294 293 288 292 297 296 294 292
325 319 322 323 317 314 272 275 269 250 244 245 249 253 249 252 252 248 255 253 252 258 260 259 263 264 266 263 266 270 270 269 270 270 274 276 274 275 279 282 282 280 287 283 288 285 285 290 284
310 318 322 330 321 319 306 294 284 263 245 247 253 251 253 253 253 252 258 258 258 256 255 258 261 263 266 266 266 268 268 268 269 271 269 270 273 273 276 279 279 279 280 280 278 275 283 279 277
314 317 326 329 319 322 315 275 276 286 260 233 247 245 244 249 249 250 254 256 256 254 254 257 257 259 261 262 264 263 264 263 263 266 267 267 270 270 270 273 271 272 271 276 277 269 273 277 273
314 317 319 322 319 318 309 310 272 277 287 241 238 237 237 237 234 251 260 246 249 251 254 254 253 256 257 255 257 259 257 254 255 258 259 258 260 262 263 263 261 266 265 269 270 268 268 272 273
316 318 318 319 320 319 316 307 305 270 285 252 232 236 229 229 226 229 229 233 240 245 249 247 249 252 252 252 251 252 249 250 250 248 249 250 249 251 252 254 255 258 262 263 265 268 267 268 271
317 320 315 319 322 322 310 305 302 297 276 247 238 240 227 225 222 233 233 224 258 253 253 249 248 248 249 248 246 245 245 245 243 243 245 246 245 247 247 250 252 256 258 260 263 264 265 266 266
315 319 324 326 326 322 315 306 302 295 251 245 242 236 233 228 222 229 226 221 203 246 235 243 246 247 246 247 248 243 243 243 240 240 243 247 248 247 245 248 251 255 258 261 264 263 264 266 267
324 322 324 327 322 322 321 311 305 295 258 234 239 237 233 233 231 222 227 218 204 230 240 238 240 242 242 242 242 244 242 242 242 240 237 243 250 252 251 250 253 257 259 261 262 259 262 265 267
320 324 327 327 331 324 320 314 303 298 272 236 223 218 220 225 226 220 221 205 203 212 233 232 240 243 243 244 243 242 242 240 244 241 241 238 237 240 247 253 254 253 257 262 263 259 260 264 267
329 329 329 337 334 327 322 312 304 301 296 279 253 221 213 209 213 212 205 198 201 202 217 195 231 247 244 249 246 244 241 241 241 242 240 242 245 243 243 242 243 246 251 255 259 259 262 268 270
331 332 332 335 336 328 327 317 305 297 295 280 261 251 219 210 209 201 194 199 201 191 191 201 209 236 224 239 242 244 242 239 239 242 244 246 244 247 249 247 243 245 247 251 256 259 263 267 273
332 337 334 335 335 329 325 322 313 301 290 277 255 237 231 219 211 196 197 201 203 201 186 192 202 212 215 238 246 240 243 245 244 240 240 244 249 247 246 251 251 250 254 256 256 257 260 264 268
343 341 333 337 336 333 329 328 324 311 292 275 252 236 220 219 217 206 199 202 206 201 196 194 203 212 218 231 233 232 236 236 236 238 241 241 243 244 250 248 250 253 256 258 259 260 263 265 264
347 333 334 339 341 338 334 334 330 319 305 286 258 236 220 216 207 212 204 204 208 209 208 197 201 199 207 216 225 233 225 229 237 238 240 237 243 246 250 253 255 252 253 254 257 259 259 262 262
342 339 342 342 342 343 343 340 338 335 319 297 271 242 222 216 211 204 202 206 206 207 206 208 199 203 204 212 216 216 225 230 233 243 246 237 241 241 245 247 244 249 252 253 253 251 253 256 259
357 358 352 351 345 349 352 349 345 351 339 315 285 250 229 215 212 207 206 205 201 202 200 202 199 206 206 208 209 208 221 234 241 249 249 241 245 241 240 243 245 249 254 256 256 254 257 260 260
16 12 0 3 0 354 358 2 355 358 355 338 310 260 235 218 211 208 206 209 210 205 203 202 198 200 204 208 210 210 215 231 231 233 234 248 247 240 245 245 245 247 247 250 249 255 255 259 263
13 11 12 15 11 9 7 6 7 2 359 355 344 277 234 219 210 210 209 207 207 207 210 209 210 206 205 212 212 215 212 214 216 223 233 241 249 238 249 249 251 251 251 251 252 256 259 262 265
18 17 26 20 23 18 15 11 10 6 4 1 357 332 239 219 212 210 209 209 211 211 213 213 210 209 208 211 212 213 214 214 217 218 226 229 244 240 249 252 253 254 255 257 260 260 260 261 264
25 24 30 32 26 25 20 15 14 12 7 5 0 356 264 222 216 212 211 212 210 211 211 210 209 213 210 212 211 210 213 213 218 222 228 234 242 248 247 249 250 256 258 263 263 263 264 265 263
27 29 30 35 32 27 27 19 15 16 13 6 4 2 347 232 223 218 217 214 210 211 212 210 212 213 210 211 212 213 215 220 221 226 228 235 243 249 249 249 249 247 253 260 263 262 264 265 267
24 29 27 31 35 27 27 25 18 17 15 13 7 2 359 306 226 224 218 218 215 211 211 208 210 214 216 215 213 214 218 219 227 231 231 235 241 251 255 257 252 250 251 256 260 262 264 269 271
23 26 30 30 31 32 28 27 23 17 16 13 12 7 360 353 243 223 223 219 219 215 212 212 211 217 219 219 216 216 219 224 225 228 232 235 243 246 245 246 252 251 254 248 261 263 266 271 275
18 25 27 28 29 31 29 26 26 22 18 15 11 8 4 353 334 234 223 221 219 219 218 216 215 218 220 222 223 223 224 224 229 227 231 234 239 247 246 247 251 257 261 262 266 269 272 270 267
359 20 20 25 25 26 30 26 26 24 19 17 12 7 5 358 339 294 233 225 223 221 219 220 222 221 224 225 228 227 227 229 230 231 233 234 238 242 246 246 249 252 251 256 257 266 265 265 271
345 357 15 19 23 19 24 24 25 24 23 18 14 9 5 2 348 321 275 234 228 227 226 224 223 226 227 227 229 230 229 231 232 234 235 238 241 242 247 249 250 254 254 253 258 258 261 259 264
Height
10792 10793 10794 10796 10794 10797 10802 10800 10800 10802 10803 10803 10809 10809 10811 10815 10818 10812 10815 10820 10822 10826 10827 10829 10832 10835 10837 10840 10842 10843 10845 10848 10849 10850 10851 10853 10853 10854 10856 10855 10856 10857 10857 10857 10855 10854 10854 10852 10849
10787 10789 10788 10788 10788 10788 10792 10786 10785 10789 10792 10789 10792 10795 10801 10803 10806 10806 10806 10809 10814 10816 10818 10820 10824 10826 10827 10831 10833 10835 10838 10840 10842 10843 10845 10847 10847 10848 10850 10851 10850 10851 10852 10852 10851 10850 10849 10848 10846
10781 10780 10779 10783 10778 10779 10778 10775 10775 10776 10775 10771 10778 10779 10785 10790 10791 10792 10798 10799 10802 10806 10808 10810 10813 10816 10818 10820 10823 10825 10827 10831 10833 10834 10837 10840 10840 10843 10844 10845 10845 10845 10846 10847 10846 10845 10844 10843 10842
10771 10771 10768 10769 10770 10764 10763 10762 10759 10758 10758 10759 10757 10767 10771 10774 10776 10779 10782 10788 10790 10792 10795 10798 10802 10804 10807 10809 10811 10814 10815 10820 10823 10825 10828 10831 10833 10835 10837 10839 10840 10839 10841 10841 10841 10840 10839 10838 10836
10763 10761 10760 10759 10756 10752 10748 10742 10740 10744 10743 10743 10740 10744 10753 10755 10761 10765 10768 10773 10776 10780 10783 10784 10787 10791 10794 10797 10800 10802 10804 10807 10812 10816 10819 10821 10824 10827 10829 10832 10833 10834 10834 10835 10834 10834 10833 10832 10830
10754 10749 10748 10744 10740 10736 10733 10723 10716 10723 10727 10727 10728 10724 10731 10743 10747 10750 10755 10756 10765 10768 10767 10770 10774 10778 10779 10783 10786 10789 10792 10794 10799 10803 10807 10811 10814 10816 10818 10822 10825 10825 10827 10828 10828 10828 10826 10825 10824
10746 10741 10737 10733 10728 10721 10715 10710 10700 10698 10707 10711 10710 10710 10718 10721 10732 10735 10743 10740 10746 10748 10752 10755 10759 10762 10765 10770 10772 10776 10778 10782 10786 10790 10795 10798 10804 10807 10808 10812 10814 10816 10817 10818 10820 10820 10818 10818 10817
10737 10732 10724 10719 10713 10708 10701 10693 10687 10681 10687 10690 10697 10696 10701 10707 10724 10731 10727 10725 10728 10728 10733 10738 10742 10744 10748 10754 10758 10761 10764 10770 10773 10778 10783 10787 10790 10796 10799 10801 10804 10805 10808 10810 10811 10812 10812 10810 10810
10729 10721 10714 10708 10698 10693 10681 10672 10669 10662 10668 10667 10673 10678 10681 10689 10708 10714 10707 10709 10711 10712 10715 10722 10724 10729 10733 10738 10743 10747 10752 10756 10764 10767 10770 10774 10779 10784 10789 10791 10794 10792 10797 10800 10802 10804 10803 10803 10803
10717 10710 10702 10694 10687 10680 10661 10651 10647 10642 10645 10642 10645 10657 10661 10667 10684 10690 10693 10703 10709 10702 10703 10706 10707 10711 10718 10724 10730 10734 10739 10744 10752 10759 10760 10762 10767 10774 10778 10782 10784 10784 10787 10790 10793 10793 10793 10794 10793
10710 10701 10690 10682 10671 10661 10644 10631 10626 10620 10621 10621 10626 10637 10642 10645 10662 10673 10681 10687 10703 10692 10689 10688 10691 10696 10702 10709 10717 10723 10728 10733 10738 10746 10751 10754 10759 10764 10769 10771 10776 10776 10777 10781 10783 10785 10784 10785 10786
10700 10691 10680 10670 10658 10639 10629 10614 10604 10600 10603 10603 10603 10615 10623 10629 10643 10657 10661 10672 10678 10678 10676 10679 10679 10682 10689 10694 10701 10709 10717 10722 10727 10734 10737 10744 10750 10755 10759 10762 10765 10768 10769 10770 10775 10775 10776 10777 10778
10693 10682 10671 10658 10643 10629 10614 10600 10590 10584 10584 10581 10581 10589 10599 10607 10621 10635 10639 10651 10657 10666 10664 10671 10671 10674 10678 10683 10688 10694 10703 10711 10717 10724 10727 10730 10736 10740 10748 10752 10756 10759 10761 10761 10765 10767 10769 10769 10769
10681 10672 10660 10646 10629 10611 10600 10589 10579 10570 10569 10570 10569 10573 10580 10590 10601 10614 10624 10628 10634 10646 10653 10673 10665 10664 10668 10672 10678 10684 10691 10700 10707 10713 10717 10722 10727 10730 10738 10739 10743 10748 10751 10752 10755 10757 10758 10759 10759
10675 10661 10646 10633 10617 10599 10588 10578 10570 10560 10556 10557 10558 10563 10568 10576 10585 10597 10604 10602 10609 10623 10637 10648 10655 10656 10659 10657 10666 10673 10681 10688 10695 10702 10708 10712 10717 10722 10725 10729 10733 10737 10739 10742 10745 10747 10749 10750 10750
10671 10654 10639 10622 10609 10590 10579 10570 10560 10553 10547 10547 10546 10552 10557 10564 10571 10580 10585 10591 10593 10605 10618 10632 10638 10643 10650 10652 10657 10664 10672 10678 10684 10692 10697 10703 10707 10712 10716 10719 10725 10728 10730 10733 10737 10738 10739 10740 10741
10664 10647 10636 10621 10601 10586 10573 10562 10550 10544 10539 10537 10537 10541 10546 10551 10560 10571 10575 10581 10584 10592 10600 10611 10620 10633 10640 10646 10648 10656 10663 10668 10673 10678 10684 10691 10696 10701 10703 10708 10711 10716 10719 10722 10726 10728 10729 10729 10730
10659 10644 10630 10615 10597 10579 10564 10554 10545 10535 10529 10527 10526 10529 10534 10538 10545 10553 10567 10572 10574 10589 10591 10598 10605 10614 10624 10631 10638 10646 10652 10657 10663 10667 10671 10677 10683 10687 10692 10695 10698 10701 10706 10710 10713 10716 10716 10717 10717
10659 10640 10625 10608 10590 10575 10558 10549 10538 10529 10521 10516 10515 10516 10522 10527 10535 10539 10545 10555 10564 10577 10580 10589 10598 10601 10608 10620 10631 10638 10643 10648 10652 10655 10659 10664 10670 10677 10680 10684 10686 10691 10694 10697 10701 10703 10704 10705 10706
10651 10633 10617 10600 10584 10570 10556 10543 10532 10522 10514 10509 10505 10506 10508 10516 10524 10531 10538 10546 10555 10564 10571 10580 10586 10593 10600 10613 10620 10626 10635 10640 10642 10648 10648 10653 10660 10663 10668 10671 10674 10679 10683 10686 10688 10691 10693 10694 10695
10647 10631 10615 10598 10581 10566 10552 10541 10529 10519 10511 10504 10500 10498 10499 10503 10512 10522 10530 10537 10546 10555 10564 10569 10576 10588 10597 10604 10611 10616 10625 10631 10635 10640 10643 10638 10648 10652 10657 10660 10664 10667 10672 10675 10677 10679 10681 10681 10684
10645 10631 10614 10598 10581 10564 10550 10538 10528 10516 10507 10500 10495 10493 10492 10495 10501 10509 10520 10530 10539 10545 10553 10565 10572 10579 10587 10597 10603 10611 10616 10621 10625 10629 10634 10635 10635 10642 10647 10650 10654 10658 10661 10665 10668 10670 10671 10672 10674
10643 10628 10609 10596 10579 10564 10551 10539 10525 10517 10508 10498 10492 10490 10489 10491 10495 10501 10511 10520 10528 10536 10545 10559 10566 10571 10578 10588 10594 10600 10608 10614 10616 10621 10625 10626 10626 10632 10638 10641 10645 10648 10652 10655 10657 10658 10660 10661 10661
10639 10628 10610 10595 10585 10568 10555 10542 10531 10519 10508 10500 10493 10488 10487 10488 10492 10496 10502 10510 10518 10528 10538 10552 10559 10562 10570 10576 10584 10591 10598 10603 10607 10611 10612 10615 10617 10621 10628 10633 10636 10639 10641 10644 10646 10646 10646 10647 10649
10639 10624 10611 10597 10584 10572 10555 10544 10534 10522 10512 10502 10494 10489 10486 10486 10488 10492 10496 10502 10509 10520 10529 10540 10549 10553 10560 10567 10575 10579 10586 10592 10596 10598 10602 10607 10610 10613 10618 10621 10626 10629 10632 10634 10635 10635 10637 10638 10638
10637 10623 10609 10595 10581 10571 10558 10546 10535 10523 10515 10507 10498 10490 10487 10486 10486 10487 10490 10498 10506 10512 10522 10532 10540 10546 10552 10556 10561 10568 10574 10580 10586 10589 10593 10598 10601 10605 10607 10611 10615 10617 10621 10623 10624 10625 10626 10627 10628
10636 10624 10611 10599 10585 10572 10563 10549 10538 10528 10517 10509 10501 10494 10487 10484 10484 10485 10486 10491 10499 10507 10514 10523 10529 10534 10540 10545 10551 10557 10564 10568 10573 10580 10585 10589 10592 10597 10600 10603 10604 10605 10609 10611 10609 10612 10614 10614 10615
10634 10621 10613 10600 10587 10573 10563 10554 10541 10530 10520 10511 10502 10496 10490 10484 10481 10483 10483 10486 10491 10500 10508 10514 10519 10525 10530 10535 10540 10548 10552 10558 10564 10569 10573 10578 10582 10586 10588 10592 10593 10593 10594 10596 10598 10599 10600 10598 10599
10633 10621 10611 10598 10588 10577 10564 10555 10543 10533 10522 10513 10505 10498 10491 10485 10481 10478 10480 10481 10483 10488 10496 10505 10510 10514 10520 10527 10532 10537 10541 10547 10552 10557 10561 10565 10567 10570 10573 10576 10580 10580 10582 10584 10583 10585 10587 10586 10584
10631 10623 10609 10600 10587 10577 10565 10557 10545 10535 10525 10515 10506 10500 10493 10486 10480 10476 10475 10476 10478 10481 10485 10490 10498 10503 10509 10514 10520 10525 10530 10534 10539 10543 10547 10550 10552 10555 10558 10559 10562 10563 10568 10568 10569 10572 10573 10574 10572